Location: ??
(35.5052°N, 139.7262°E)
Time: 17:14:18
(UTC+00:00)

FENGYUN 1C DEB - Pass Details

Date: 07 February 2022
Orbit: 690 x 958 km, 98.4° (Epoch: 26 May)

Event Time Altitude Azimuth Distance (km) Brightness Sun altitude
Rises 10:07:00 0° 204° (SSW) 3,351 ? -23.2°
Reaches altitude 10° 10:09:54 10° 221° (SW) 2,471 ? -23.8°
Maximum altitude 10:13:55 21° 268° (W) 1,896 ? -24.7°
Drops below altitude 10° 10:18:09 10° 315° (NW) 2,603 ? -25.5°
Sets 10:21:19 0° 331° (NNW) 3,586 ? -26.2°
